sat.trackr.live / text

‹ back to catalog

STARLINK-11709 [DTC]

NORAD 64065 · 2025-107B

PAYLOAD ACTIVE UNKNOWN

§ Identity

Operator
Country
US
Launch date
2025-05-21
Launch site
AFETR
Launch vehicle
Mass (kg)
RCS (m²)

Purposes: comms

External: N2YO · Heavens-Above · Gunter

§ Orbital elements

Epoch: 2026-09-19T23:44:00.178080Z

Period
91.67 min
Inclination
42.9990°
Eccentricity
0.0001622
Mean motion
15.70887776 rev/d
Perigee alt
355.3 km
Apogee alt
357.5 km
Semi-major
6,734.5 km
B*
1.3844e-3
RAAN
7.2972°
Arg perigee
287.6340°
Mean anomaly
72.4351°
Rev number
7,785

§ Raw data

STARLINK-11709 [DTC]1 64065U 25107B   26262.98889095  .00181487  00000+0  13844-2 0  99902 64065  42.9990   7.2972 0001622 287.6340  72.4351 15.70887776 77859

JSON: /api/v1/satellites/64065 · /tle

For live sub-satellite position, see the globe view (requires WebGL).

§ Visibility from observer

Set your observer location to see the next 7 days of passes ≥ 10°. The values pass through the URL so the page stays shareable.

No JS? Fill the form by hand. The geolocation button needs JavaScript.